sat.trackr.live / text

‹ back to catalog

IRIDIUM 117

NORAD 42808 · 2017-039F

PAYLOAD ACTIVE UNKNOWN

§ Identity

Operator
Country
US
Launch date
2017-06-25
Launch site
AFWTR
Launch vehicle
Mass (kg)
RCS (m²)

Purposes: comms

External: N2YO · Heavens-Above · Gunter

§ Orbital elements

Epoch: 2026-09-20T03:33:06.939072Z

Period
100.40 min
Inclination
86.3973°
Eccentricity
0.0002243
Mean motion
14.34217678 rev/d
Perigee alt
776.1 km
Apogee alt
779.3 km
Semi-major
7,155.8 km
B*
9.3377e-6
RAAN
313.9189°
Arg perigee
92.6780°
Mean anomaly
267.4673°
Rev number
48,358

§ Raw data

IRIDIUM 1171 42808U 17039F   26263.14799698  .00000046  00000+0  93377-5 0  99972 42808  86.3973 313.9189 0002243  92.6780 267.4673 14.34217678483583

JSON: /api/v1/satellites/42808 · /tle

For live sub-satellite position, see the globe view (requires WebGL).

§ Visibility from observer

Set your observer location to see the next 7 days of passes ≥ 10°. The values pass through the URL so the page stays shareable.

No JS? Fill the form by hand. The geolocation button needs JavaScript.